| time (UTC) | temp C | wind direction | speed KPH | gust KPH | rain 1hr cm | rain 24hr cm | rain mn cm | humidity % | barometer mb |
| 20260905004504 | 31 | 118 | 9.7 | 20.9 | 0.00 | 0.00 | 0.00 | 60 | 1013.2 |
| 20260905004004 | 31 | 118 | 9.7 | 20.9 | 0.00 | 0.00 | 0.00 | 60 | 1013.2 |
| 20260905003504 | 32 | 127 | 9.7 | 20.9 | 0.00 | 0.00 | 0.00 | 60 | 1013.1 |
| 20260905003004 | 32 | 120 | 11.3 | 20.9 | 0.00 | 0.00 | 0.00 | 60 | 1013.1 |
| 20260905002504 | 32 | 116 | 9.7 | 20.9 | 0.00 | 0.00 | 0.00 | 59 | 1013.1 |
| 20260905002004 | 32 | 118 | 11.3 | 20.9 | 0.00 | 0.00 | 0.00 | 58 | 1013.0 |
| 20260905001505 | 32 | 118 | 12.9 | 22.5 | 0.00 | 0.00 | 0.00 | 58 | 1012.9 |
| 20260905001004 | 32 | 117 | 12.9 | 22.5 | 0.00 | 0.00 | 0.00 | 57 | 1012.8 |
| 20260905000504 | 32 | 118 | 12.9 | 25.7 | 0.00 | 0.00 | 0.00 | 57 | 1012.8 |
| 20260905000004 | 33 | 126 | 12.9 | 25.7 | 0.00 | 0.00 | 0.00 | 56 | 1012.7 |
| 20260904235504 | 33 | 124 | 12.9 | 29.0 | 0.00 | 0.00 | 0.00 | 55 | 1012.7 |
| 20260904235004 | 33 | 119 | 12.9 | 29.0 | 0.00 | 0.00 | 0.00 | 54 | 1012.7 |
| 20260904234504 | 33 | 123 | 11.3 | 25.7 | 0.00 | 0.00 | 0.00 | 54 | 1012.6 |
| 20260904234025 | 33 | 138 | 11.3 | 22.5 | 0.00 | 0.00 | 0.00 | 52 | 1012.6 |
| 20260904233504 | 34 | 135 | 8.0 | 19.3 | 0.00 | 0.00 | 0.00 | 50 | 1012.5 |
| 20260904233004 | 34 | 122 | 9.7 | 22.5 | 0.00 | 0.00 | 0.00 | 48 | 1012.4 |
| 20260904232504 | 34 | 136 | 9.7 | 22.5 | 0.00 | 0.00 | 0.00 | 46 | 1012.6 |
| 20260904232004 | 35 | 151 | 8.0 | 17.7 | 0.00 | 0.00 | 0.00 | 45 | 1012.5 |
| 20260904231504 | 35 | 132 | 8.0 | 20.9 | 0.00 | 0.00 | 0.00 | 43 | 1012.5 |
| 20260904231004 | 35 | 115 | 9.7 | 20.9 | 0.00 | 0.00 | 0.00 | 43 | 1012.6 |
| 20260904230504 | 35 | 133 | 9.7 | 20.9 | 0.00 | 0.00 | 0.00 | 42 | 1012.7 |
| 20260904230004 | 35 | 164 | 8.0 | 17.7 | 0.00 | 0.00 | 0.00 | 42 | 1012.8 |
| 20260904225504 | 35 | 167 | 8.0 | 19.3 | 0.00 | 0.00 | 0.00 | 41 | 1012.8 |
| 20260904225004 | 35 | 177 | 8.0 | 19.3 | 0.00 | 0.00 | 0.00 | 40 | 1012.7 |
| 20260904224504 | 35 | 180 | 8.0 | 12.9 | 0.00 | 0.00 | 0.00 | 40 | 1012.8 |
| 20260904224004 | 35 | 170 | 8.0 | 17.7 | 0.00 | 0.00 | 0.00 | 41 | 1012.9 |
| 20260904223525 | 35 | 177 | 9.7 | 22.5 | 0.00 | 0.00 | 0.00 | 40 | 1012.8 |
| 20260904223025 | 35 | 174 | 11.3 | 22.5 | 0.00 | 0.00 | 0.00 | 40 | 1012.9 |
| 20260904222525 | 35 | 171 | 11.3 | 22.5 | 0.00 | 0.00 | 0.00 | 42 | 1012.9 |
| 20260904222004 | 35 | 161 | 11.3 | 22.5 | 0.00 | 0.00 | 0.00 | 43 | 1012.9 |
| 20260904221504 | 35 | 146 | 9.7 | 22.5 | 0.00 | 0.00 | 0.00 | 43 | 1013.0 |
| 20260904221004 | 34 | 153 | 9.7 | 22.5 | 0.00 | 0.00 | 0.00 | 45 | 1012.9 |
| 20260904220504 | 34 | 171 | 11.3 | 22.5 | 0.00 | 0.00 | 0.00 | 47 | 1013.0 |
| 20260904220004 | 34 | 158 | 9.7 | 20.9 | 0.00 | 0.00 | 0.00 | 49 | 1013.0 |
| 20260904215504 | 34 | 131 | 8.0 | 19.3 | 0.00 | 0.00 | 0.00 | 52 | 1013.1 |
| 20260904215004 | 34 | 140 | 9.7 | 19.3 | 0.00 | 0.00 | 0.00 | 52 | 1013.0 |
| 20260904214525 | 35 | 143 | 9.7 | 20.9 | 0.00 | 0.00 | 0.00 | 50 | 1013.1 |
| 20260904214004 | 35 | 130 | 11.3 | 22.5 | 0.00 | 0.00 | 0.00 | 51 | 1013.2 |
| 20260904213504 | 35 | 132 | 11.3 | 22.5 | 0.00 | 0.00 | 0.00 | 52 | 1013.3 |
| 20260904213004 | 35 | 135 | 11.3 | 25.7 | 0.00 | 0.00 | 0.00 | 51 | 1013.4 |
| 20260904212525 | 34 | 137 | 9.7 | 25.7 | 0.00 | 0.00 | 0.00 | 53 | 1013.4 |
| 20260904212004 | 34 | 134 | 9.7 | 22.5 | 0.00 | 0.00 | 0.00 | 55 | 1013.4 |
| 20260904211504 | 33 | 134 | 11.3 | 20.9 | 0.00 | 0.00 | 0.00 | 56 | 1013.4 |
| 20260904211003 | 33 | 152 | 11.3 | 20.9 | 0.00 | 0.00 | 0.00 | 56 | 1013.5 |
| 20260904210504 | 33 | 150 | 11.3 | 20.9 | 0.00 | 0.00 | 0.00 | 55 | 1013.6 |
| 20260904210004 | 33 | 148 | 11.3 | 20.9 | 0.00 | 0.00 | 0.00 | 55 | 1013.7 |
| 20260904205504 | 33 | 133 | 12.9 | 27.4 | 0.00 | 0.00 | 0.00 | 55 | 1013.6 |
| 20260904205004 | 33 | 128 | 12.9 | 27.4 | 0.00 | 0.00 | 0.00 | 53 | 1013.7 |
| 20260904204525 | 33 | 146 | 11.3 | 22.5 | 0.00 | 0.00 | 0.00 | 53 | 1013.8 |
| 20260904204004 | 34 | 143 | 11.3 | 20.9 | 0.00 | 0.00 | 0.00 | 51 | 1013.9 |
| 20260904203525 | 35 | 126 | 11.3 | 20.9 | 0.00 | 0.00 | 0.00 | 50 | 1013.9 |
| 20260904203004 | 35 | 132 | 11.3 | 22.5 | 0.00 | 0.00 | 0.00 | 49 | 1014.0 |
| 20260904202525 | 35 | 135 | 12.9 | 22.5 | 0.00 | 0.00 | 0.00 | 50 | 1013.9 |
| 20260904202003 | 35 | 125 | 12.9 | 25.7 | 0.00 | 0.00 | 0.00 | 49 | 1014.0 |
| 20260904201504 | 35 | 131 | 11.3 | 25.7 | 0.00 | 0.00 | 0.00 | 50 | 1014.0 |
| 20260904201004 | 35 | 142 | 9.7 | 25.7 | 0.00 | 0.00 | 0.00 | 49 | 1014.1 |
| 20260904200524 | 35 | 139 | 8.0 | 22.5 | 0.00 | 0.00 | 0.00 | 52 | 1014.1 |
| 20260904200004 | 35 | 131 | 8.0 | 22.5 | 0.00 | 0.00 | 0.00 | 53 | 1014.2 |
| 20260904195504 | 34 | 146 | 8.0 | 17.7 | 0.00 | 0.00 | 0.00 | 56 | 1014.2 |
| 20260904195004 | 33 | 168 | 6.4 | 16.1 | 0.00 | 0.00 | 0.00 | 57 | 1014.1 |
| 20260904194504 | 33 | 140 | 8.0 | 12.9 | 0.00 | 0.00 | 0.00 | 59 | 1014.2 |
| 20260904194004 | 33 | 120 | 8.0 | 19.3 | 0.00 | 0.00 | 0.00 | 59 | 1014.2 |
| 20260904193503 | 33 | 133 | 8.0 | 19.3 | 0.00 | 0.00 | 0.00 | 60 | 1014.3 |
| 20260904193004 | 33 | 142 | 8.0 | 25.7 | 0.00 | 0.00 | 0.00 | 62 | 1014.3 |
| 20260904192504 | 33 | 127 | 8.0 | 25.7 | 0.00 | 0.00 | 0.00 | 61 | 1014.4 |
| 20260904192004 | 33 | 134 | 8.0 | 19.3 | 0.00 | 0.00 | 0.00 | 61 | 1014.4 |
| 20260904191524 | 33 | 139 | 9.7 | 19.3 | 0.00 | 0.00 | 0.00 | 60 | 1014.5 |
| 20260904191004 | 33 | 138 | 9.7 | 22.5 | 0.00 | 0.00 | 0.00 | 60 | 1014.7 |
| 20260904190504 | 32 | 127 | 8.0 | 22.5 | 0.00 | 0.00 | 0.00 | 64 | 1014.8 |
| 20260904190024 | 32 | 136 | 8.0 | 17.7 | 0.00 | 0.00 | 0.00 | 65 | 1014.8 |
| 20260904185525 | 32 | 136 | 8.0 | 20.9 | 0.00 | 0.00 | 0.00 | 65 | 1014.9 |
| 20260904185025 | 32 | 129 | 8.0 | 20.9 | 0.00 | 0.00 | 0.00 | 66 | 1015.1 |
| 20260904184503 | 31 | 140 | 8.0 | 17.7 | 0.00 | 0.00 | 0.00 | 68 | 1015.1 |
| 20260904184004 | 31 | 128 | 6.4 | 20.9 | 0.00 | 0.00 | 0.00 | 68 | 1015.2 |
| 20260904183504 | 31 | 127 | 6.4 | 20.9 | 0.00 | 0.00 | 0.00 | 69 | 1015.3 |
| 20260904183024 | 31 | 117 | 8.0 | 16.1 | 0.00 | 0.00 | 0.00 | 69 | 1015.4 |
| 20260904182504 | 31 | 107 | 8.0 | 17.7 | 0.00 | 0.00 | 0.00 | 70 | 1015.4 |
| 20260904182003 | 31 | 122 | 8.0 | 17.7 | 0.00 | 0.00 | 0.00 | 70 | 1015.3 |
| 20260904181524 | 31 | 149 | 8.0 | 17.7 | 0.00 | 0.00 | 0.00 | 71 | 1015.3 |
| 20260904181003 | 31 | 148 | 8.0 | 12.9 | 0.00 | 0.00 | 0.00 | 71 | 1015.3 |
| 20260904180503 | 31 | 121 | 8.0 | 12.9 | 0.00 | 0.00 | 0.00 | 72 | 1015.3 |
| 20260904180004 | 30 | 128 | 6.4 | 12.9 | 0.00 | 0.00 | 0.00 | 73 | 1015.4 |
| 20260904175504 | 30 | 148 | 6.4 | 12.9 | 0.00 | 0.00 | 0.00 | 73 | 1015.5 |
| 20260904175003 | 30 | 145 | 8.0 | 16.1 | 0.00 | 0.00 | 0.00 | 73 | 1015.7 |
| 20260904174503 | 30 | 136 | 6.4 | 16.1 | 0.00 | 0.00 | 0.00 | 73 | 1015.7 |
| 20260904174004 | 30 | 130 | 6.4 | 11.3 | 0.00 | 0.00 | 0.00 | 75 | 1015.7 |
| 20260904173503 | 30 | 141 | 6.4 | 12.9 | 0.00 | 0.00 | 0.00 | 75 | 1015.7 |
| 20260904173003 | 30 | 159 | 8.0 | 17.7 | 0.00 | 0.00 | 0.00 | 75 | 1015.8 |
| 20260904172503 | 30 | 160 | 8.0 | 17.7 | 0.00 | 0.00 | 0.00 | 75 | 1015.9 |
| 20260904172004 | 29 | 153 | 8.0 | 16.1 | 0.00 | 0.00 | 0.00 | 76 | 1016.0 |
| 20260904171504 | 29 | 170 | 6.4 | 16.1 | 0.00 | 0.00 | 0.00 | 76 | 1015.9 |
| 20260904171024 | 29 | 186 | 6.4 | 19.3 | 0.00 | 0.00 | 0.00 | 76 | 1015.9 |
| 20260904170504 | 29 | 182 | 8.0 | 19.3 | 0.00 | 0.00 | 0.00 | 76 | 1015.9 |
| 20260904170004 | 29 | 171 | 9.7 | 22.5 | 0.00 | 0.00 | 0.00 | 76 | 1016.0 |
| 20260904165504 | 28 | 173 | 11.3 | 22.5 | 0.00 | 0.00 | 0.00 | 76 | 1015.9 |
| 20260904165024 | 28 | 181 | 9.7 | 20.9 | 0.00 | 0.00 | 0.00 | 77 | 1015.8 |
| 20260904164524 | 28 | 185 | 9.7 | 17.7 | 0.00 | 0.00 | 0.00 | 78 | 1015.9 |
| 20260904164004 | 28 | 183 | 11.3 | 20.9 | 0.00 | 0.00 | 0.00 | 78 | 1015.7 |
| 20260904163524 | 28 | 184 | 11.3 | 20.9 | 0.00 | 0.00 | 0.00 | 79 | 1015.7 |
| 20260904163004 | 28 | 187 | 9.7 | 20.9 | 0.00 | 0.00 | 0.00 | 80 | 1015.7 |
| 20260904162503 | 28 | 190 | 8.0 | 20.9 | 0.00 | 0.00 | 0.00 | 82 | 1015.6 |
| 20260904162004 | 28 | 192 | 11.3 | 25.7 | 0.00 | 0.00 | 0.00 | 82 | 1015.6 |
| 20260904161503 | 28 | 186 | 12.9 | 25.7 | 0.00 | 0.00 | 0.00 | 83 | 1015.6 |
| 20260904161003 | 27 | 180 | 11.3 | 22.5 | 0.00 | 0.00 | 0.00 | 83 | 1015.7 |
| 20260904160524 | 27 | 185 | 9.7 | 17.7 | 0.00 | 0.00 | 0.00 | 85 | 1015.6 |
| 20260904160003 | 27 | 196 | 8.0 | 17.7 | 0.00 | 0.00 | 0.00 | 86 | 1015.6 |
| 20260904155524 | 27 | 199 | 6.4 | 17.7 | 0.00 | 0.00 | 0.00 | 87 | 1015.6 |
| 20260904155003 | 27 | 196 | 6.4 | 12.9 | 0.00 | 0.00 | 0.00 | 87 | 1015.6 |
| 20260904154503 | 27 | 196 | 8.0 | 12.9 | 0.00 | 0.00 | 0.00 | 87 | 1015.6 |
| 20260904154003 | 27 | 196 | 6.4 | 12.9 | 0.00 | 0.00 | 0.00 | 87 | 1015.6 |
| 20260904153503 | 27 | 195 | 6.4 | 12.9 | 0.00 | 0.00 | 0.00 | 87 | 1015.6 |
| 20260904153003 | 27 | 200 | 8.0 | 12.9 | 0.00 | 0.00 | 0.00 | 86 | 1015.7 |
| 20260904152503 | 27 | 204 | 6.4 | 12.9 | 0.00 | 0.00 | 0.00 | 86 | 1015.6 |
| 20260904152003 | 27 | 204 | 6.4 | 9.7 | 0.00 | 0.00 | 0.00 | 86 | 1015.6 |
| 20260904151503 | 27 | 207 | 6.4 | 11.3 | 0.00 | 0.00 | 0.00 | 85 | 1015.7 |
| 20260904151003 | 27 | 199 | 8.0 | 12.9 | 0.00 | 0.00 | 0.00 | 84 | 1015.6 |
| 20260904150503 | 27 | 192 | 6.4 | 12.9 | 0.00 | 0.00 | 0.00 | 84 | 1015.6 |
| 20260904150025 | 27 | 184 | 6.4 | 12.9 | 0.00 | 0.00 | 0.00 | 85 | 1015.6 |
| 20260904145503 | 27 | 170 | 6.4 | 12.9 | 0.00 | 0.00 | 0.00 | 85 | 1015.6 |
| 20260904145003 | 27 | 171 | 6.4 | 9.7 | 0.00 | 0.00 | 0.00 | 85 | 1015.6 |
| 20260904144503 | 27 | 182 | 6.4 | 9.7 | 0.00 | 0.00 | 0.00 | 85 | 1015.7 |
| 20260904144003 | 27 | 180 | 8.0 | 16.1 | 0.00 | 0.00 | 0.00 | 85 | 1015.7 |
| 20260904143503 | 27 | 162 | 6.4 | 16.1 | 0.00 | 0.00 | 0.00 | 86 | 1015.6 |
| 20260904143003 | 27 | 155 | 6.4 | 11.3 | 0.00 | 0.00 | 0.00 | 86 | 1015.5 |
| 20260904142503 | 27 | 169 | 6.4 | 12.9 | 0.00 | 0.00 | 0.00 | 86 | 1015.6 |
| 20260904142003 | 27 | 181 | 6.4 | 12.9 | 0.00 | 0.00 | 0.00 | 87 | 1015.5 |
| 20260904141503 | 27 | 193 | 8.0 | 11.3 | 0.00 | 0.00 | 0.00 | 87 | 1015.5 |
| 20260904141003 | 27 | 189 | 8.0 | 11.3 | 0.00 | 0.00 | 0.00 | 87 | 1015.5 |
| 20260904140524 | 27 | 180 | 6.4 | 11.3 | 0.00 | 0.00 | 0.00 | 87 | 1015.4 |
| 20260904140024 | 27 | 169 | 6.4 | 11.3 | 0.00 | 0.00 | 0.00 | 88 | 1015.5 |
| 20260904135503 | 27 | 163 | 3.2 | 9.7 | 0.00 | 0.00 | 0.00 | 88 | 1015.5 |
| 20260904135003 | 27 | 181 | 3.2 | 11.3 | 0.00 | 0.00 | 0.00 | 89 | 1015.4 |
| 20260904134503 | 27 | 176 | 3.2 | 11.3 | 0.00 | 0.00 | 0.00 | 89 | 1015.3 |
| 20260904134003 | 27 | 131 | 3.2 | 9.7 | 0.00 | 0.00 | 0.00 | 89 | 1015.3 |
| 20260904133503 | 27 | 109 | 3.2 | 8.0 | 0.00 | 0.00 | 0.00 | 89 | 1015.2 |
| 20260904133003 | 27 | 143 | 3.2 | 9.7 | 0.00 | 0.00 | 0.00 | 89 | 1015.2 |
| 20260904132503 | 26 | 162 | 3.2 | 9.7 | 0.00 | 0.00 | 0.00 | 89 | 1015.2 |
| 20260904132003 | 26 | 142 | 3.2 | 8.0 | 0.00 | 0.00 | 0.00 | 89 | 1015.1 |
| 20260904131503 | 26 | 154 | 3.2 | 11.3 | 0.00 | 0.00 | 0.00 | 89 | 1015.1 |
| 20260904131024 | 26 | 149 | 6.4 | 11.3 | 0.00 | 0.00 | 0.00 | 89 | 1015.1 |
| 20260904130503 | 26 | 132 | 6.4 | 9.7 | 0.00 | 0.00 | 0.00 | 89 | 1015.1 |
| 20260904130003 | 26 | 140 | 6.4 | 12.9 | 0.00 | 0.00 | 0.00 | 89 | 1015.0 |
| 20260904125503 | 26 | 151 | 6.4 | 12.9 | 0.00 | 0.00 | 0.00 | 89 | 1015.0 |
| 20260904125003 | 26 | 149 | 6.4 | 12.9 | 0.00 | 0.00 | 0.00 | 89 | 1015.0 |
| 20260904124504 | 26 | 143 | 6.4 | 11.3 | 0.00 | 0.00 | 0.00 | 89 | 1015.0 |
| 20260904124004 | 26 | 151 | 6.4 | 11.3 | 0.00 | 0.00 | 0.00 | 89 | 1014.9 |
| 20260904123504 | 26 | 147 | 8.0 | 12.9 | 0.00 | 0.00 | 0.00 | 89 | 1014.9 |
| 20260904123025 | 26 | 148 | 6.4 | 12.9 | 0.00 | 0.00 | 0.00 | 89 | 1014.9 |
| 20260904122504 | 26 | 147 | 6.4 | 9.7 | 0.00 | 0.00 | 0.00 | 89 | 1014.8 |
| 20260904122004 | 26 | 141 | 6.4 | 12.9 | 0.00 | 0.00 | 0.00 | 89 | 1014.6 |
| 20260904121504 | 26 | 141 | 6.4 | 16.1 | 0.00 | 0.00 | 0.00 | 89 | 1014.5 |
| 20260904121004 | 26 | 133 | 8.0 | 16.1 | 0.00 | 0.00 | 0.00 | 89 | 1014.4 |
| 20260904120504 | 26 | 130 | 8.0 | 16.1 | 0.00 | 0.00 | 0.00 | 89 | 1014.4 |
| 20260904120004 | 26 | 123 | 8.0 | 17.7 | 0.00 | 0.00 | 0.00 | 89 | 1014.3 |
| 20260904115504 | 26 | 119 | 8.0 | 17.7 | 0.00 | 0.00 | 0.00 | 89 | 1014.4 |
| 20260904115025 | 26 | 121 | 8.0 | 17.7 | 0.00 | 0.00 | 0.00 | 89 | 1014.3 |
| 20260904114525 | 26 | 123 | 8.0 | 17.7 | 0.00 | 0.00 | 0.00 | 89 | 1014.3 |
| 20260904114004 | 26 | 122 | 8.0 | 16.1 | 0.00 | 0.00 | 0.00 | 89 | 1014.2 |
| 20260904113504 | 26 | 126 | 6.4 | 17.7 | 0.00 | 0.00 | 0.00 | 88 | 1014.2 |
| 20260904113004 | 26 | 134 | 6.4 | 17.7 | 0.00 | 0.00 | 0.00 | 88 | 1014.0 |
| 20260904112504 | 26 | 134 | 6.4 | 17.7 | 0.00 | 0.00 | 0.00 | 88 | 1014.1 |
| 20260904112004 | 26 | 128 | 6.4 | 17.7 | 0.00 | 0.00 | 0.00 | 88 | 1014.1 |
| 20260904111504 | 26 | 122 | 6.4 | 12.9 | 0.00 | 0.00 | 0.00 | 88 | 1014.1 |
| 20260904111004 | 26 | 118 | 8.0 | 16.1 | 0.00 | 0.00 | 0.00 | 88 | 1014.0 |
| 20260904110504 | 26 | 119 | 8.0 | 17.7 | 0.00 | 0.00 | 0.00 | 88 | 1014.0 |
| 20260904110004 | 26 | 118 | 8.0 | 17.7 | 0.00 | 0.00 | 0.00 | 88 | 1014.0 |
| 20260904105504 | 26 | 121 | 8.0 | 16.1 | 0.00 | 0.00 | 0.00 | 88 | 1014.0 |
| 20260904105004 | 26 | 123 | 6.4 | 12.9 | 0.00 | 0.00 | 0.00 | 88 | 1013.8 |
| 20260904104504 | 26 | 125 | 6.4 | 11.3 | 0.00 | 0.00 | 0.00 | 87 | 1013.7 |
| 20260904104004 | 26 | 143 | 6.4 | 11.3 | 0.00 | 0.00 | 0.00 | 87 | 1013.7 |
| 20260904103504 | 26 | 153 | 6.4 | 12.9 | 0.00 | 0.00 | 0.00 | 87 | 1013.6 |
| 20260904103004 | 26 | 154 | 6.4 | 12.9 | 0.00 | 0.00 | 0.00 | 87 | 1013.6 |
| 20260904102504 | 26 | 161 | 6.4 | 9.7 | 0.00 | 0.00 | 0.00 | 87 | 1013.6 |
| 20260904102004 | 26 | 158 | 6.4 | 9.7 | 0.00 | 0.00 | 0.00 | 87 | 1013.6 |
| 20260904101504 | 26 | 162 | 6.4 | 12.9 | 0.00 | 0.00 | 0.00 | 87 | 1013.6 |
| 20260904101025 | 26 | 163 | 6.4 | 12.9 | 0.00 | 0.00 | 0.00 | 87 | 1013.6 |
| 20260904100504 | 26 | 156 | 6.4 | 11.3 | 0.00 | 0.00 | 0.00 | 87 | 1013.6 |
| 20260904100004 | 26 | 157 | 6.4 | 16.1 | 0.00 | 0.00 | 0.00 | 87 | 1013.6 |
| 20260904095525 | 26 | 153 | 6.4 | 16.1 | 0.00 | 0.00 | 0.00 | 87 | 1013.7 |
| 20260904095025 | 26 | 151 | 6.4 | 16.1 | 0.00 | 0.00 | 0.00 | 87 | 1013.7 |
| 20260904094504 | 26 | 162 | 8.0 | 16.1 | 0.00 | 0.00 | 0.00 | 87 | 1013.6 |
| 20260904094004 | 26 | 161 | 8.0 | 17.7 | 0.00 | 0.00 | 0.00 | 87 | 1013.4 |
| 20260904093525 | 26 | 161 | 8.0 | 17.7 | 0.00 | 0.00 | 0.00 | 87 | 1013.5 |
| 20260904093004 | 26 | 174 | 6.4 | 11.3 | 0.00 | 0.00 | 0.00 | 87 | 1013.4 |
| 20260904092504 | 26 | 178 | 6.4 | 11.3 | 0.00 | 0.00 | 0.00 | 86 | 1013.5 |
| 20260904092004 | 26 | 176 | 6.4 | 12.9 | 0.00 | 0.00 | 0.00 | 86 | 1013.4 |
| 20260904091503 | 26 | 173 | 8.0 | 12.9 | 0.00 | 0.00 | 0.00 | 86 | 1013.4 |
| 20260904091025 | 26 | 173 | 6.4 | 12.9 | 0.00 | 0.00 | 0.00 | 86 | 1013.4 |
| 20260904090504 | 26 | 174 | 8.0 | 17.7 | 0.00 | 0.00 | 0.00 | 86 | 1013.3 |
| 20260904090004 | 26 | 170 | 6.4 | 17.7 | 0.00 | 0.00 | 0.00 | 86 | 1013.5 |
| 20260904085504 | 26 | 165 | 6.4 | 11.3 | 0.00 | 0.00 | 0.00 | 86 | 1013.5 |
| 20260904085004 | 26 | 169 | 6.4 | 11.3 | 0.00 | 0.00 | 0.00 | 86 | 1013.5 |
| 20260904084504 | 26 | 171 | 6.4 | 12.9 | 0.00 | 0.00 | 0.00 | 86 | 1013.4 |
| 20260904084004 | 26 | 166 | 8.0 | 16.1 | 0.00 | 0.00 | 0.00 | 86 | 1013.4 |
| 20260904083504 | 26 | 168 | 8.0 | 16.1 | 0.00 | 0.00 | 0.00 | 85 | 1013.4 |
| 20260904083004 | 27 | 172 | 8.0 | 16.1 | 0.00 | 0.00 | 0.00 | 85 | 1013.4 |
| 20260904082504 | 27 | 170 | 8.0 | 16.1 | 0.00 | 0.00 | 0.00 | 85 | 1013.4 |
| 20260904082004 | 27 | 167 | 8.0 | 16.1 | 0.00 | 0.00 | 0.00 | 85 | 1013.4 |
| 20260904081504 | 27 | 173 | 8.0 | 16.1 | 0.00 | 0.00 | 0.00 | 85 | 1013.4 |
| 20260904081025 | 27 | 178 | 8.0 | 17.7 | 0.00 | 0.00 | 0.00 | 84 | 1013.4 |
| 20260904080525 | 27 | 169 | 8.0 | 17.7 | 0.00 | 0.00 | 0.00 | 84 | 1013.4 |
| 20260904080004 | 27 | 170 | 8.0 | 16.1 | 0.00 | 0.00 | 0.00 | 84 | 1013.4 |
| 20260904075504 | 27 | 173 | 9.7 | 17.7 | 0.00 | 0.00 | 0.00 | 84 | 1013.4 |
| 20260904075025 | 27 | 171 | 9.7 | 17.7 | 0.00 | 0.00 | 0.00 | 84 | 1013.5 |
| 20260904074504 | 27 | 171 | 9.7 | 20.9 | 0.00 | 0.00 | 0.00 | 84 | 1013.5 |
| 20260904074024 | 27 | 170 | 9.7 | 20.9 | 0.00 | 0.00 | 0.00 | 84 | 1013.6 |
| 20260904073503 | 27 | 168 | 8.0 | 17.7 | 0.00 | 0.00 | 0.00 | 84 | 1013.7 |
| 20260904073004 | 27 | 170 | 8.0 | 25.7 | 0.00 | 0.00 | 0.00 | 84 | 1013.7 |
| 20260904072504 | 27 | 166 | 9.7 | 25.7 | 0.00 | 0.00 | 0.00 | 84 | 1013.7 |
| 20260904072025 | 27 | 162 | 9.7 | 20.9 | 0.00 | 0.00 | 0.00 | 84 | 1013.8 |
| 20260904071503 | 27 | 165 | 8.0 | 20.9 | 0.00 | 0.00 | 0.00 | 84 | 1013.7 |
| 20260904071003 | 27 | 167 | 8.0 | 17.7 | 0.00 | 0.00 | 0.00 | 84 | 1013.8 |
| 20260904070503 | 27 | 167 | 8.0 | 17.7 | 0.00 | 0.00 | 0.00 | 84 | 1013.8 |
| 20260904070004 | 27 | 167 | 9.7 | 27.4 | 0.00 | 0.00 | 0.00 | 84 | 1013.8 |
| 20260904065504 | 27 | 169 | 9.7 | 27.4 | 0.00 | 0.00 | 0.00 | 84 | 1013.9 |
| 20260904065004 | 27 | 171 | 9.7 | 20.9 | 0.00 | 0.00 | 0.00 | 84 | 1014.0 |
| 20260904064504 | 27 | 172 | 9.7 | 20.9 | 0.00 | 0.00 | 0.00 | 83 | 1014.0 |
| 20260904064003 | 27 | 176 | 9.7 | 19.3 | 0.00 | 0.00 | 0.00 | 83 | 1013.9 |
| 20260904063524 | 27 | 173 | 8.0 | 17.7 | 0.00 | 0.00 | 0.00 | 83 | 1014.0 |
| 20260904063004 | 27 | 160 | 8.0 | 16.1 | 0.00 | 0.00 | 0.00 | 83 | 1014.0 |
| 20260904062504 | 27 | 161 | 8.0 | 17.7 | 0.00 | 0.00 | 0.00 | 83 | 1014.0 |
| 20260904062024 | 27 | 162 | 8.0 | 17.7 | 0.00 | 0.00 | 0.00 | 83 | 1013.9 |
| 20260904061503 | 27 | 160 | 8.0 | 17.7 | 0.00 | 0.00 | 0.00 | 83 | 1013.9 |
| 20260904061004 | 27 | 157 | 8.0 | 17.7 | 0.00 | 0.00 | 0.00 | 83 | 1014.0 |
| 20260904060503 | 27 | 158 | 8.0 | 16.1 | 0.00 | 0.00 | 0.00 | 82 | 1014.0 |
| 20260904060004 | 27 | 159 | 9.7 | 17.7 | 0.00 | 0.00 | 0.00 | 82 | 1014.0 |
| 20260904055504 | 27 | 155 | 9.7 | 19.3 | 0.00 | 0.00 | 0.00 | 82 | 1014.0 |
| 20260904055003 | 27 | 150 | 8.0 | 19.3 | 0.00 | 0.00 | 0.00 | 82 | 1014.0 |
| 20260904054524 | 27 | 153 | 8.0 | 19.3 | 0.00 | 0.00 | 0.00 | 81 | 1014.0 |
| 20260904054003 | 27 | 154 | 8.0 | 19.3 | 0.00 | 0.00 | 0.00 | 81 | 1013.9 |
| 20260904053504 | 27 | 158 | 8.0 | 17.7 | 0.00 | 0.00 | 0.00 | 81 | 1013.9 |
| 20260904053004 | 27 | 151 | 8.0 | 19.3 | 0.00 | 0.00 | 0.00 | 81 | 1013.8 |
| 20260904052503 | 27 | 143 | 8.0 | 19.3 | 0.00 | 0.00 | 0.00 | 80 | 1013.8 |
| 20260904052024 | 27 | 143 | 8.0 | 16.1 | 0.00 | 0.00 | 0.00 | 80 | 1013.8 |
| 20260904051525 | 27 | 139 | 8.0 | 16.1 | 0.00 | 0.00 | 0.00 | 80 | 1013.8 |
| 20260904051003 | 27 | 135 | 8.0 | 16.1 | 0.00 | 0.00 | 0.00 | 80 | 1013.8 |
| 20260904050504 | 27 | 138 | 6.4 | 12.9 | 0.00 | 0.00 | 0.00 | 80 | 1013.7 |
| 20260904050004 | 27 | 136 | 6.4 | 12.9 | 0.00 | 0.00 | 0.00 | 80 | 1013.7 |
| 20260904045503 | 27 | 139 | 6.4 | 16.1 | 0.00 | 0.00 | 0.00 | 80 | 1013.7 |
| 20260904045004 | 27 | 139 | 8.0 | 16.1 | 0.00 | 0.00 | 0.00 | 79 | 1013.8 |
| 20260904044504 | 27 | 132 | 8.0 | 16.1 | 0.00 | 0.00 | 0.00 | 79 | 1013.8 |
| 20260904044003 | 27 | 131 | 6.4 | 16.1 | 0.00 | 0.00 | 0.00 | 79 | 1013.7 |
| 20260904043504 | 27 | 126 | 8.0 | 12.9 | 0.00 | 0.00 | 0.00 | 79 | 1013.7 |
| 20260904043004 | 27 | 122 | 8.0 | 12.9 | 0.00 | 0.00 | 0.00 | 79 | 1013.7 |
| 20260904042503 | 27 | 121 | 8.0 | 17.7 | 0.00 | 0.00 | 0.00 | 78 | 1013.6 |
| 20260904042024 | 27 | 123 | 9.7 | 17.7 | 0.00 | 0.00 | 0.00 | 78 | 1013.7 |
| 20260904041503 | 27 | 125 | 8.0 | 17.7 | 0.00 | 0.00 | 0.00 | 78 | 1013.6 |
| 20260904041003 | 27 | 128 | 8.0 | 17.7 | 0.00 | 0.00 | 0.00 | 78 | 1013.6 |
| 20260904040503 | 27 | 131 | 8.0 | 17.7 | 0.00 | 0.00 | 0.00 | 77 | 1013.7 |
| 20260904040003 | 27 | 130 | 8.0 | 19.3 | 0.00 | 0.00 | 0.00 | 77 | 1013.6 |
| 20260904035503 | 27 | 127 | 8.0 | 19.3 | 0.00 | 0.00 | 0.00 | 77 | 1013.6 |
| 20260904035004 | 27 | 118 | 6.4 | 16.1 | 0.00 | 0.00 | 0.00 | 77 | 1013.6 |
| 20260904034525 | 27 | 112 | 6.4 | 12.9 | 0.00 | 0.00 | 0.00 | 77 | 1013.6 |
| 20260904034003 | 27 | 114 | 6.4 | 12.9 | 0.00 | 0.00 | 0.00 | 76 | 1013.7 |
| 20260904033503 | 27 | 117 | 6.4 | 16.1 | 0.00 | 0.00 | 0.00 | 76 | 1013.7 |
| 20260904033003 | 27 | 114 | 6.4 | 16.1 | 0.00 | 0.00 | 0.00 | 76 | 1013.5 |
| 20260904032503 | 28 | 113 | 8.0 | 16.1 | 0.00 | 0.00 | 0.00 | 76 | 1013.4 |
| 20260904032024 | 28 | 111 | 8.0 | 19.3 | 0.00 | 0.00 | 0.00 | 75 | 1013.3 |
| 20260904031503 | 28 | 112 | 9.7 | 19.3 | 0.00 | 0.00 | 0.00 | 75 | 1013.4 |
| 20260904031003 | 28 | 114 | 9.7 | 19.3 | 0.00 | 0.00 | 0.00 | 75 | 1013.2 |
| 20260904030503 | 28 | 116 | 8.0 | 17.7 | 0.00 | 0.00 | 0.00 | 74 | 1013.2 |
| 20260904030003 | 28 | 113 | 8.0 | 17.7 | 0.00 | 0.00 | 0.00 | 74 | 1013.1 |
| 20260904025503 | 28 | 113 | 8.0 | 17.7 | 0.00 | 0.00 | 0.00 | 73 | 1013.1 |
| 20260904025024 | 28 | 113 | 8.0 | 17.7 | 0.00 | 0.00 | 0.00 | 73 | 1013.1 |
| 20260904024524 | 28 | 114 | 8.0 | 16.1 | 0.00 | 0.00 | 0.00 | 72 | 1013.1 |
| 20260904024003 | 28 | 108 | 8.0 | 20.9 | 0.00 | 0.00 | 0.00 | 72 | 1013.0 |
| 20260904023504 | 28 | 105 | 9.7 | 20.9 | 0.00 | 0.00 | 0.00 | 72 | 1012.9 |
| 20260904023003 | 28 | 112 | 9.7 | 17.7 | 0.00 | 0.00 | 0.00 | 71 | 1012.8 |
| 20260904022503 | 28 | 108 | 9.7 | 20.9 | 0.00 | 0.00 | 0.00 | 71 | 1012.9 |
| 20260904022025 | 28 | 104 | 9.7 | 20.9 | 0.00 | 0.00 | 0.00 | 71 | 1012.9 |
| 20260904021503 | 29 | 102 | 6.4 | 16.1 | 0.00 | 0.00 | 0.00 | 71 | 1012.9 |
| 20260904021003 | 29 | 103 | 6.4 | 12.9 | 0.00 | 0.00 | 0.00 | 70 | 1012.8 |
| 20260904020524 | 29 | 110 | 8.0 | 17.7 | 0.00 | 0.00 | 0.00 | 70 | 1012.7 |
| 20260904020003 | 29 | 113 | 11.3 | 19.3 | 0.00 | 0.00 | 0.00 | 70 | 1012.4 |
| 20260904015503 | 29 | 113 | 11.3 | 20.9 | 0.00 | 0.00 | 0.00 | 70 | 1012.2 |
| 20260904015024 | 29 | 117 | 9.7 | 20.9 | 0.00 | 0.00 | 0.00 | 70 | 1012.1 |
| 20260904014503 | 29 | 119 | 9.7 | 19.3 | 0.00 | 0.00 | 0.00 | 69 | 1012.0 |
| 20260904014003 | 29 | 117 | 9.7 | 19.3 | 0.00 | 0.00 | 0.00 | 69 | 1012.0 |
| 20260904013503 | 30 | 117 | 9.7 | 22.5 | 0.00 | 0.00 | 0.00 | 69 | 1012.1 |
| 20260904013003 | 30 | 114 | 11.3 | 22.5 | 0.00 | 0.00 | 0.00 | 68 | 1012.1 |
| 20260904012503 | 30 | 117 | 11.3 | 20.9 | 0.00 | 0.00 | 0.00 | 68 | 1012.0 |
| 20260904012003 | 30 | 115 | 12.9 | 27.4 | 0.00 | 0.00 | 0.00 | 68 | 1012.0 |
| 20260904011525 | 30 | 112 | 12.9 | 27.4 | 0.00 | 0.00 | 0.00 | 67 | 1011.9 |
| 20260904011003 | 30 | 114 | 9.7 | 22.5 | 0.00 | 0.00 | 0.00 | 67 | 1012.1 |
| 20260904010503 | 30 | 110 | 9.7 | 25.7 | 0.00 | 0.00 | 0.00 | 66 | 1012.0 |
| 20260904010003 | 30 | 117 | 11.3 | 25.7 | 0.00 | 0.00 | 0.00 | 66 | 1012.0 |
| 20260904005503 | 30 | 121 | 12.9 | 25.7 | 0.00 | 0.00 | 0.00 | 65 | 1012.0 |